* Astronomy

Members Login
Username 
 
Password 
    Remember Me  
Post Info TOPIC: Asteroid 2011 CX46


L

Posts: 131433
Date:
Asteroid 2011 CX46
Permalink  
 


Orbital elements:
2011 CX46 Earth MOID = 0.0312 AU
Epoch 2011 Feb. 8.0 TT = JDT 2455600.5 MPC
M 307.70743 (2000.0) P Q
n 0.54518662 Peri. 105.53620 -0.22846741 +0.97130498
a 1.4840183 Node 151.00009 -0.93730044 -0.20109733
e 0.5541058 Incl. 7.83633 -0.26319294 -0.12699018
P 1.81 H 22.1 G 0.15 U 9

MPEC 2011 - C76


__________________
Page 1 of 1  sorted by
 
Quick Reply

Please log in to post quick replies.



Create your own FREE Forum
Report Abuse
Powered by ActiveBoard